LizzieSat-1

operational
NORAD ID: 59132 Int'l Des: 2024-043 Owner: SIDUS Country: US
LEOCIRCULARRETROGRADESSO

LizzieSat-1について

説明を読み込み中...

リアルタイム位置

3D地球を読み込み中...

次回通過

高度履歴

Altitude vs Time

uPlot chart will show altitude changes over time

軌道要素

1 59132U 24043AL 26061.35431729 .00005572 00000-0 21590-3 0 9991
2 59132 97.5448 195.8616 0009616 259.6028 100.4126 15.26534276110635
Epoch: Mar 2, 2026 • Age: 36 hours

現在のステータス

高度 503.5 km
速度 7.61 km/s
衛星直下点 -61.83°S, 16.88°E
打ち上げ日 Mar 4, 2024
運用期間 1.9 years
タイプ other

技術仕様

分類 Payload
質量 100.00 kg
乾燥質量 100.00 kg
総質量 100.00 kg
長さ 0.40 m
直径 0.80 m
スパン 1.40 m
形状 Oct cyl+8 pan
製造者 SIDUS
バスタイプ LizzieSat
フェーズステータス In Orbit
所有者/国 SIDUS/US

大規模コンステレーション

Loading constellations...